Wind_Speed
19 18 18 17 17 17 17 17 18 18 19 20 21 23 24 25 26 27 29 30 32 33 33 34 35 35 36 36 36 35 35 34 33 32 31 30 30 30 29 29 28 28 27
22 21 20 20 20 19 19 20 20 21 21 22 23 25 26 27 28 30 30 32 33 35 35 36 36 37 37 37 37 36 36 35 34 33 32 31 31 31 30 30 29 28 28
25 24 23 23 22 22 22 23 23 23 24 25 26 27 28 29 30 32 33 34 35 36 37 37 38 38 38 38 37 37 37 36 35 34 33 33 32 32 31 31 30 30 29
28 27 26 26 25 25 25 25 26 26 27 27 28 29 30 31 32 34 35 36 37 37 38 39 39 40 40 39 38 37 37 36 36 35 34 34 34 33 33 32 32 31 30
31 30 30 29 29 28 28 28 28 29 29 30 30 31 32 33 34 36 37 38 39 39 40 40 41 41 41 40 39 38 37 37 36 36 36 35 35 34 33 33 33 32 32
35 34 34 33 32 31 31 31 31 32 32 33 33 34 35 36 37 37 38 40 41 41 41 42 43 42 41 40 39 39 38 38 37 37 37 36 36 35 34 34 33 33 32
38 37 37 36 35 35 35 34 35 35 35 36 37 37 37 38 38 39 39 41 42 42 43 43 43 43 42 41 40 39 38 38 38 37 38 37 36 35 35 34 33 33 33
40 40 40 39 39 39 38 38 39 39 39 39 40 40 40 39 40 40 40 41 42 43 44 44 44 43 42 41 40 40 39 38 38 38 38 38 37 36 35 34 33 33 33
43 43 43 43 42 42 42 42 42 42 42 42 43 44 44 43 42 41 42 41 42 43 44 44 44 43 42 41 41 40 40 39 38 38 38 37 36 35 35 34 33 33 33
45 45 45 45 45 45 45 45 45 45 45 44 45 45 46 46 46 44 44 44 44 44 44 44 43 43 42 41 41 40 40 39 39 38 38 36 35 34 33 33 33 33 33
47 47 48 48 48 48 48 48 47 47 47 47 47 47 46 46 46 46 45 45 45 45 44 44 43 43 42 42 41 40 40 39 39 38 36 34 33 32 32 33 33 33 33
49 49 49 50 50 50 49 49 49 49 49 48 48 48 47 47 46 46 45 45 45 45 44 44 44 43 42 42 41 40 40 39 37 36 34 33 32 31 32 32 32 32 33
51 51 51 51 51 51 51 51 50 50 49 49 48 48 47 47 46 46 45 45 45 45 44 44 43 43 42 42 41 40 39 37 35 34 33 32 31 31 31 31 31 31 31
52 52 51 51 51 51 51 51 50 50 49 49 48 48 47 46 46 46 46 46 45 45 44 43 43 42 42 41 40 38 37 35 34 33 32 31 30 30 30 30 30 30 30
52 51 50 50 51 51 51 50 49 49 48 48 48 48 47 47 47 47 46 46 46 44 43 43 42 41 41 40 38 36 35 34 33 32 31 30 30 30 30 29 29 29 28
52 51 50 50 50 50 50 49 49 49 49 48 48 48 48 48 48 47 47 46 45 44 43 42 41 41 39 38 36 35 34 33 32 31 30 30 30 29 29 28 28 27 26
51 50 50 50 50 50 50 50 50 50 49 49 49 48 48 47 47 47 46 45 44 43 42 41 40 39 37 36 35 34 33 32 31 30 30 29 29 29 28 28 27 26 26
50 50 51 51 51 51 51 51 51 51 50 50 49 49 48 47 47 46 44 43 43 42 40 39 38 36 35 34 33 32 31 31 30 29 29 29 29 28 28 27 27 27 27
51 51 51 51 52 52 52 52 51 51 50 50 49 48 47 46 45 44 43 42 41 40 39 37 36 35 34 33 32 31 30 30 29 29 29 29 29 29 28 28 28 28 28
50 51 51 51 51 51 51 50 50 49 48 48 47 46 45 45 44 43 42 41 39 37 36 35 34 33 32 31 30 30 30 30 29 29 29 29 29 29 29 30 30 30 30
47 47 48 48 48 48 48 47 47 46 46 45 44 44 43 42 41 40 39 38 36 35 34 33 32 32 31 30 30 30 30 30 30 30 30 30 30 30 31 31 32 32 32
45 45 45 45 45 45 45 45 44 44 43 42 42 41 40 39 38 37 35 34 33 32 32 32 31 31 30 30 30 30 30 30 30 30 31 31 31 32 33 33 33 34 34
42 43 42 42 42 42 42 42 42 41 41 40 39 39 38 37 36 34 33 33 32 31 31 31 31 31 31 30 30 30 30 30 31 31 32 32 33 34 34 35 35 35 36
41 41 41 40 40 40 40 40 39 39 38 37 37 36 35 33 33 32 32 31 31 31 31 31 31 31 30 30 31 31 31 32 32 33 33 34 35 35 36 36 37 38 38
38 39 39 39 38 38 37 37 36 35 35 34 33 32 31 31 30 30 30 30 31 31 31 31 31 31 31 31 31 32 32 33 34 35 35 36 37 37 38 38 39 39 40
36 35 35 35 35 35 35 34 33 32 32 31 30 30 30 29 29 29 30 30 31 31 31 31 31 31 32 32 33 34 34 35 36 37 37 38 39 39 40 40 41 41 42
Wind_Direction
255 259 264 269 273 277 281 285 289 293 296 298 301 303 305 307 309 311 313 314 316 317 318 319 320 320 320 320 319 318 316 314 312 310 308 306 304 303 301 300 298 295 293
256 260 264 269 272 276 280 283 287 290 293 295 298 301 303 305 306 308 309 311 313 314 315 316 317 318 318 318 317 316 314 312 310 308 305 304 303 302 301 299 298 296 293
258 262 266 269 273 276 279 282 285 288 290 293 295 298 301 303 304 305 307 308 310 311 312 314 315 316 316 316 315 313 312 310 308 305 303 302 301 300 299 298 297 295 292
261 264 267 270 273 276 279 282 285 287 290 292 294 297 299 300 302 303 305 306 308 309 310 312 313 314 314 313 312 311 309 307 305 303 302 301 300 299 298 297 295 293 291
263 266 269 271 273 276 279 282 284 287 290 291 293 296 297 299 300 301 303 305 306 308 309 311 312 312 312 311 310 309 307 305 303 301 300 300 299 298 296 295 294 292 290
265 268 270 271 274 277 280 282 284 287 289 291 293 295 296 297 299 300 302 303 305 306 308 309 310 310 310 309 308 307 305 304 302 300 299 299 298 297 296 294 293 292 290
267 269 271 272 274 277 280 282 284 286 289 290 292 293 295 296 298 299 301 302 304 305 307 308 308 308 308 307 306 305 303 302 300 299 299 298 298 296 295 294 293 291 290
266 269 271 273 275 277 280 282 284 286 288 290 291 292 292 294 295 297 299 300 302 303 305 306 307 306 306 305 305 303 302 300 299 298 298 298 298 297 295 294 293 291 290
268 269 271 273 275 278 280 282 284 285 287 289 291 292 293 294 294 296 297 298 299 301 302 303 304 304 304 303 303 301 300 300 299 298 298 297 297 296 295 294 294 293 290
269 269 271 273 275 278 280 282 283 285 286 288 289 291 292 294 295 296 297 298 299 300 301 302 302 302 302 301 301 300 299 299 298 298 297 297 296 295 294 295 295 295 292
270 271 272 273 275 277 279 280 282 283 285 287 288 289 291 292 293 295 296 297 299 300 301 301 300 300 300 300 300 299 298 298 298 298 297 296 295 295 294 295 295 295 294
270 272 273 274 275 277 278 279 281 282 284 285 286 288 289 291 292 294 295 296 297 298 298 299 298 298 299 299 299 299 298 298 298 298 296 296 295 295 296 296 296 295 295
270 271 272 273 274 276 277 279 280 282 283 284 285 287 289 290 291 293 294 295 296 296 297 297 297 297 298 299 298 298 298 297 297 297 296 295 295 296 297 296 296 295 296
270 271 271 272 273 275 277 278 279 281 282 283 285 286 287 289 290 291 293 294 294 295 295 295 295 296 297 297 298 298 297 296 296 296 295 295 295 296 296 296 295 296 297
269 270 271 272 272 274 276 277 279 280 281 283 284 285 287 288 289 290 291 292 292 293 293 294 294 295 296 296 296 296 295 295 295 295 295 295 295 296 296 296 296 297 297
268 269 270 271 272 274 275 277 278 280 281 282 284 285 286 287 287 288 290 290 290 291 292 291 292 293 294 295 295 294 294 294 295 294 294 294 295 296 296 297 296 296 297
267 268 269 271 272 274 275 277 278 279 281 282 283 284 285 285 286 287 287 288 289 290 289 290 291 292 293 293 293 293 293 293 293 293 293 294 294 295 295 295 296 295 295
268 269 270 271 272 274 275 277 278 279 280 281 282 282 283 284 284 285 285 286 287 287 288 289 290 290 291 291 291 291 292 292 292 293 293 294 294 294 294 294 294 295 294
269 270 271 272 274 275 277 278 278 279 279 280 280 280 281 281 282 282 283 284 285 286 287 287 288 289 289 290 290 290 291 291 292 292 293 293 293 293 293 293 293 293 293
270 271 272 274 275 276 276 277 277 277 278 278 278 278 278 279 280 281 282 283 284 284 285 286 286 287 288 289 289 290 290 290 291 292 292 292 292 292 292 291 291 292 292
272 272 273 274 274 274 274 275 275 275 275 275 276 276 277 278 279 280 281 282 282 283 283 284 285 286 287 288 289 290 290 291 292 292 292 292 292 291 291 291 291 291 290
271 272 272 273 273 273 274 274 274 275 275 275 275 276 277 278 278 279 280 280 280 281 282 283 284 285 286 287 289 290 291 292 292 292 292 292 291 291 291 290 290 290 290
271 272 272 273 273 274 274 274 273 274 275 275 275 276 276 276 277 277 277 278 279 280 282 283 284 285 286 287 288 289 290 291 292 292 292 292 292 291 291 290 290 290 289
272 272 272 273 274 274 274 274 275 275 274 274 274 274 274 274 275 275 275 277 278 280 282 283 284 285 286 287 288 289 291 292 292 292 292 292 292 292 291 291 291 290 290
272 273 272 272 273 274 274 274 273 272 272 272 272 272 273 274 274 274 275 277 279 281 282 283 285 286 287 288 289 290 291 292 293 293 292 293 293 293 292 292 292 291 291
273 273 273 272 273 274 274 273 271 271 271 271 271 271 271 271 271 273 276 278 280 281 282 284 285 286 287 288 290 291 292 293 293 293 293 294 294 293 293 293 292 292 291
Height
5869 5870 5870 5870 5870 5870 5870 5870 5869 5869 5868 5867 5866 5865 5864 5862 5861 5859 5857 5855 5852 5850 5847 5844 5842 5839 5836 5832 5829 5826 5822 5819 5816 5813 5811 5808 5806 5803 5801 5799 5797 5796 5795
5865 5865 5866 5866 5866 5866 5866 5866 5865 5865 5864 5863 5862 5861 5859 5858 5856 5854 5852 5850 5847 5844 5842 5839 5836 5833 5830 5826 5823 5819 5816 5813 5810 5807 5804 5802 5799 5797 5795 5793 5791 5790 5788
5860 5861 5862 5862 5862 5862 5862 5861 5861 5860 5859 5858 5857 5856 5855 5853 5851 5849 5847 5845 5842 5839 5836 5833 5830 5827 5824 5820 5817 5813 5809 5806 5803 5801 5798 5795 5793 5791 5788 5786 5785 5783 5782
5855 5856 5856 5857 5857 5857 5856 5856 5855 5855 5854 5853 5852 5851 5849 5847 5845 5843 5840 5838 5836 5833 5830 5827 5823 5820 5817 5814 5810 5806 5803 5799 5796 5793 5791 5789 5786 5784 5781 5779 5778 5776 5775
5849 5850 5850 5851 5851 5851 5851 5850 5850 5849 5848 5847 5846 5845 5843 5841 5839 5837 5834 5831 5828 5826 5823 5820 5817 5813 5809 5806 5803 5799 5796 5792 5789 5786 5784 5781 5779 5776 5774 5772 5770 5769 5767
5843 5844 5844 5844 5844 5845 5844 5843 5843 5842 5841 5840 5839 5838 5836 5834 5832 5830 5827 5824 5821 5818 5815 5812 5809 5806 5802 5798 5795 5792 5788 5785 5782 5779 5776 5773 5771 5769 5766 5764 5762 5761 5759
5835 5836 5837 5837 5837 5837 5837 5836 5835 5835 5834 5832 5831 5830 5829 5827 5825 5822 5820 5816 5813 5810 5807 5804 5801 5798 5794 5791 5787 5783 5780 5777 5774 5771 5768 5765 5763 5760 5758 5756 5754 5753 5751
5827 5828 5829 5829 5829 5829 5829 5828 5827 5827 5826 5824 5823 5821 5821 5821 5817 5815 5812 5809 5805 5802 5799 5795 5792 5789 5786 5782 5779 5775 5772 5769 5766 5763 5760 5757 5754 5752 5750 5748 5746 5744 5743
5819 5819 5820 5821 5821 5821 5821 5820 5819 5818 5817 5816 5813 5812 5811 5810 5809 5807 5804 5801 5797 5794 5790 5787 5783 5780 5777 5773 5770 5767 5763 5760 5757 5755 5752 5749 5746 5743 5741 5739 5737 5736 5734
5810 5810 5811 5812 5812 5812 5811 5811 5810 5809 5808 5806 5805 5803 5801 5799 5797 5796 5794 5791 5788 5784 5781 5777 5774 5771 5767 5764 5761 5758 5755 5752 5749 5746 5743 5740 5738 5735 5733 5731 5728 5726 5725
5801 5801 5802 5802 5802 5802 5802 5801 5800 5799 5798 5796 5795 5793 5791 5789 5787 5785 5784 5781 5778 5774 5771 5767 5764 5761 5758 5755 5752 5749 5746 5743 5740 5737 5734 5732 5729 5727 5725 5722 5720 5718 5715
5791 5791 5791 5792 5792 5792 5791 5791 5790 5789 5788 5786 5785 5783 5781 5780 5778 5775 5774 5771 5768 5765 5761 5758 5754 5751 5749 5745 5742 5739 5736 5733 5731 5728 5725 5723 5721 5719 5716 5714 5711 5709 5706
5780 5781 5781 5781 5781 5781 5780 5780 5779 5778 5777 5776 5774 5773 5771 5769 5767 5765 5763 5761 5758 5755 5752 5749 5745 5742 5739 5736 5733 5730 5727 5724 5722 5719 5717 5715 5713 5710 5708 5706 5703 5700 5698
5769 5770 5770 5770 5770 5769 5769 5769 5768 5767 5766 5765 5763 5762 5760 5759 5756 5754 5752 5750 5748 5745 5742 5739 5735 5732 5729 5726 5723 5721 5718 5715 5713 5711 5708 5706 5704 5702 5700 5697 5695 5692 5690
5757 5758 5758 5758 5758 5758 5758 5757 5757 5756 5755 5754 5752 5751 5750 5748 5746 5744 5741 5739 5737 5735 5732 5729 5726 5722 5720 5717 5714 5711 5709 5707 5705 5702 5700 5698 5696 5694 5692 5689 5687 5685 5682
5745 5746 5746 5747 5747 5746 5746 5746 5745 5744 5743 5742 5741 5740 5739 5737 5735 5733 5730 5728 5726 5724 5722 5719 5716 5713 5710 5707 5705 5703 5701 5698 5696 5694 5692 5690 5688 5686 5684 5681 5679 5677 5675
5733 5734 5734 5735 5735 5735 5734 5734 5733 5732 5732 5731 5730 5728 5727 5725 5724 5721 5719 5717 5715 5713 5711 5708 5706 5703 5701 5698 5696 5694 5692 5690 5688 5686 5684 5682 5680 5678 5676 5674 5672 5670 5668
5721 5722 5722 5722 5722 5722 5722 5721 5721 5720 5719 5719 5718 5716 5715 5714 5712 5710 5708 5706 5704 5702 5700 5698 5696 5693 5691 5689 5687 5685 5683 5681 5679 5678 5676 5674 5672 5670 5668 5666 5664 5662 5660
5709 5709 5710 5710 5710 5710 5709 5709 5708 5708 5707 5706 5705 5704 5703 5702 5700 5698 5697 5695 5693 5691 5690 5688 5686 5684 5682 5680 5679 5677 5675 5673 5671 5669 5667 5666 5664 5662 5660 5658 5656 5654 5653
5697 5697 5697 5697 5697 5697 5696 5696 5695 5695 5694 5693 5693 5692 5691 5690 5688 5687 5686 5684 5683 5681 5680 5678 5677 5675 5673 5672 5670 5668 5666 5665 5663 5661 5659 5657 5655 5653 5651 5650 5648 5646 5644
5685 5685 5685 5685 5685 5684 5684 5683 5683 5682 5682 5681 5680 5680 5679 5678 5677 5676 5675 5674 5672 5671 5670 5669 5668 5666 5664 5663 5661 5659 5658 5656 5654 5652 5650 5648 5646 5645 5643 5641 5639 5637 5635
5673 5673 5673 5673 5673 5672 5672 5671 5671 5670 5670 5669 5669 5668 5668 5667 5666 5665 5665 5664 5663 5662 5661 5660 5659 5657 5655 5654 5652 5651 5649 5647 5645 5644 5641 5639 5637 5635 5633 5631 5629 5627 5625
5662 5662 5662 5662 5661 5661 5660 5660 5659 5659 5658 5658 5658 5657 5657 5656 5656 5655 5655 5654 5654 5653 5652 5651 5650 5648 5647 5645 5643 5642 5640 5638 5636 5634 5632 5630 5628 5626 5623 5621 5619 5617 5615
5651 5651 5651 5650 5650 5650 5649 5649 5648 5648 5648 5647 5647 5647 5647 5646 5646 5646 5646 5645 5644 5644 5643 5642 5641 5639 5637 5636 5634 5632 5630 5628 5626 5624 5622 5620 5617 5615 5613 5610 5608 5605 5603
5640 5640 5640 5640 5639 5639 5638 5638 5638 5638 5637 5637 5637 5637 5637 5637 5637 5637 5637 5636 5636 5635 5634 5633 5631 5630 5628 5626 5625 5623 5621 5619 5616 5614 5612 5609 5607 5604 5601 5599 5596 5593 5590
5630 5630 5629 5629 5629 5629 5628 5628 5628 5628 5628 5628 5628 5628 5628 5628 5628 5628 5628 5627 5627 5626 5625 5623 5622 5620 5618 5617 5615 5613 5611 5608 5606 5603 5601 5598 5595 5592 5590 5586 5583 5580 5577